OK1LPD-5 Weather Reports


time (UTC)temp
C
wind
direction
speed
KPH
gust
KPH
rain 1hr
cm
rain 24hr
cm
rain mn
cm
humidity
%
barometer
mb
20260905235009 10 0 0.0 0.0 0.00 0.36 0.00 99 1018.3
20260905234010 10 0 0.0 0.0 0.00 0.36 0.00 99 1018.1
20260905233008 10 0 0.0 0.0 0.00 0.36 0.00 99 1018.0
20260905232008 10 0 0.0 0.0 0.00 0.36 0.00 99 1018.0
20260905231009 10 0 0.0 0.0 0.00 0.36 0.00 99 1018.0
20260905230010 10 0 0.0 0.0 0.00 0.36 0.00 99 1017.8
20260905225008 11 0 0.0 0.0 0.00 0.36 0.00 99 1017.7
20260905224008 11 0 0.0 0.0 0.00 0.36 0.00 99 1017.5
20260905223008 11 0 0.0 0.0 0.00 0.36 0.00 99 1017.4
20260905222008 11 45 0.0 1.6 0.00 0.36 0.00 99 1017.2
20260905221009 11 0 0.0 0.0 0.00 0.36 0.00 99 1017.1
20260905220012 11 45 0.0 3.2 0.00 0.36 0.00 99 1017.0
20260905215010 11 45 0.0 3.2 0.00 0.36 0.36 99 1017.0
20260905214009 12 0 0.0 0.0 0.00 0.36 0.36 98 1016.8
20260905213010 12 0 0.0 0.0 0.00 0.36 0.36 97 1016.6
20260905212011 12 0 0.0 0.0 0.00 0.36 0.36 96 1016.4
20260905211010 12 0 0.0 0.0 0.00 0.36 0.36 95 1016.4
20260905210010 13 0 0.0 0.0 0.00 0.36 0.36 94 1016.1
20260905205010 13 0 0.0 0.0 0.00 0.36 0.36 92 1016.0
20260905204010 13 0 0.0 0.0 0.00 0.36 0.36 91 1015.9
20260905203010 14 0 0.0 0.0 0.00 0.36 0.36 89 1015.6
20260905202010 15 45 0.0 1.6 0.00 0.36 0.36 88 1015.5
20260905201010 15 45 0.0 3.2 0.00 0.36 0.36 85 1015.5
20260905200010 15 168 0.0 3.2 0.00 0.36 0.36 84 1015.2
20260905195009 16 15 0.0 1.6 0.00 0.36 0.36 84 1015.0
20260905194010 16 358 0.0 3.2 0.00 0.36 0.36 83 1014.8
20260905193009 16 89 0.0 3.2 0.00 0.36 0.36 82 1014.7
20260905192010 17 31 0.0 6.4 0.00 0.36 0.36 81 1014.5
20260905191011 17 283 0.0 6.4 0.00 0.36 0.36 81 1014.5
20260905190010 17 329 0.0 8.0 0.00 0.36 0.36 81 1014.2
20260905185009 17 358 0.0 4.8 0.00 0.36 0.36 82 1013.9
20260905184010 17 332 0.0 6.4 0.00 0.36 0.36 83 1013.5
20260905183009 17 351 0.0 4.8 0.00 0.36 0.36 85 1013.5
20260905182010 17 340 1.6 3.2 0.00 0.36 0.36 86 1013.2
20260905181009 17 320 0.0 3.2 0.00 0.36 0.36 85 1013.0
20260905180010 18 1 0.0 1.6 0.00 0.36 0.36 84 1012.8
20260905175010 18 3 0.0 3.2 0.00 0.36 0.36 82 1012.5
20260905174009 19 1 0.0 3.2 0.00 0.36 0.36 81 1012.3
20260905173010 19 6 0.0 4.8 0.00 0.36 0.36 81 1012.0
20260905172009 20 338 0.0 6.4 0.00 0.36 0.36 80 1011.8
20260905171011 20 15 1.6 6.4 0.00 0.36 0.36 80 1011.7
20260905170010 20 41 0.0 6.4 0.00 0.36 0.36 79 1011.6
20260905165009 20 58 1.6 6.4 0.00 0.36 0.36 79 1011.4
20260905164009 21 30 3.2 6.4 0.00 0.36 0.36 77 1011.1
20260905163010 21 3 3.2 8.0 0.00 0.36 0.36 76 1011.0
20260905162010 21 343 1.6 12.9 0.00 0.36 0.36 75 1011.0
20260905161010 21 79 3.2 12.9 0.00 0.36 0.36 76 1010.8
20260905160013 21 330 3.2 12.9 0.00 0.36 0.36 78 1010.5
20260905155009 21 38 3.2 9.7 0.00 0.36 0.36 78 1010.7
20260905154009 21 268 3.2 12.9 0.00 0.36 0.36 78 1010.6
20260905153010 21 337 3.2 12.9 0.00 0.36 0.36 76 1010.5
20260905152009 21 14 0.0 11.3 0.00 0.36 0.36 76 1010.6
20260905151010 21 72 1.6 8.0 0.00 0.36 0.36 75 1010.4
20260905150009 21 19 3.2 12.9 0.00 0.36 0.36 76 1010.5
20260905145010 22 27 1.6 12.9 0.00 0.36 0.36 75 1010.4
20260905144010 22 30 3.2 17.7 0.00 0.36 0.36 74 1010.5
20260905143010 22 147 3.2 12.9 0.00 0.36 0.36 72 1010.4
20260905142009 22 302 3.2 11.3 0.00 0.36 0.36 74 1010.3
20260905141009 21 32 3.2 12.9 0.00 0.36 0.36 77 1010.4
20260905140009 21 27 3.2 11.3 0.00 0.36 0.36 77 1010.6
20260905135008 21 81 0.0 16.1 0.00 0.36 0.36 76 1010.7
20260905134009 22 126 4.8 16.1 0.00 0.36 0.36 72 1010.6
20260905133009 22 205 3.2 14.5 0.00 0.36 0.36 74 1010.7
20260905132009 21 3 4.8 16.1 0.00 0.36 0.36 76 1010.8
20260905131008 22 55 0.0 6.4 0.00 0.36 0.36 74 1011.0
20260905130009 23 120 3.2 16.1 0.00 0.36 0.36 73 1011.0
20260905125009 23 94 3.2 16.1 0.00 0.36 0.36 75 1011.1
20260905124009 22 199 3.2 8.0 0.00 0.36 0.36 77 1011.4
20260905123009 22 155 3.2 9.7 0.00 0.36 0.36 79 1011.5
20260905122008 21 322 1.6 12.9 0.00 0.36 0.36 80 1011.9
20260905121009 21 321 1.6 12.9 0.00 0.36 0.36 82 1012.0
20260905120011 21 96 4.8 12.9 0.00 0.36 0.36 82 1012.0
20260905115009 21 331 3.2 19.3 0.00 0.36 0.36 82 1012.2
20260905114010 20 216 6.4 14.5 0.00 0.36 0.36 84 1012.2
20260905113009 20 176 1.6 12.9 0.00 0.36 0.36 86 1012.4
20260905112008 20 166 3.2 9.7 0.00 0.36 0.36 87 1012.5
20260905111008 20 3 4.8 16.1 0.00 0.36 0.36 85 1012.2
20260905110011 20 1 6.4 16.1 0.00 0.36 0.36 85 1012.5
20260905105008 20 65 6.4 16.1 0.00 0.36 0.36 87 1012.6
20260905104008 20 177 1.6 11.3 0.00 0.36 0.36 88 1012.8
20260905103009 19 147 3.2 14.5 0.00 0.36 0.36 89 1012.6
20260905102008 19 30 6.4 14.5 0.00 0.36 0.36 89 1012.8
20260905101010 19 177 3.2 8.0 0.00 0.36 0.36 90 1012.7
20260905100013 19 59 3.2 12.9 0.00 0.36 0.36 95 1012.7
20260905095011 18 169 3.2 16.1 0.00 0.36 0.36 94 1012.8
20260905094009 19 99 4.8 16.1 0.00 0.36 0.36 94 1012.6
20260905093010 19 229 1.6 12.9 0.00 0.36 0.36 94 1012.9
20260905092011 20 139 1.6 11.3 0.00 0.36 0.36 94 1012.8
20260905091010 20 142 3.2 6.4 0.00 0.36 0.36 94 1013.1
20260905090010 20 72 1.6 6.4 0.00 0.36 0.36 95 1013.0
20260905085009 20 355 3.2 6.4 0.00 0.36 0.36 98 1013.0
20260905084010 18 7 1.6 9.7 0.00 0.36 0.36 99 1013.2
20260905083010 19 183 0.0 4.8 0.00 0.36 0.36 99 1013.2
20260905082009 18 264 0.0 6.4 0.00 0.36 0.36 99 1013.2
20260905081010 18 1 0.0 4.8 0.00 0.36 0.36 99 1013.1
20260905080010 17 59 1.6 8.0 0.00 0.36 0.36 99 1013.0
20260905075009 16 282 0.0 11.3 0.00 0.36 0.36 99 1013.0
20260905074010 16 293 3.2 11.3 0.00 0.36 0.36 99 1012.9
20260905073010 13 104 0.0 3.2 0.00 0.36 0.36 99 1012.8
20260905072010 13 82 1.6 3.2 0.00 0.36 0.36 99 1012.9
20260905071009 12 21 1.6 3.2 0.00 0.36 0.36 99 1012.8
20260905070010 12 132 0.0 3.2 0.03 0.36 0.36 99 1012.7
20260905065010 12 193 0.0 3.2 0.03 0.36 0.36 99 1012.7
20260905064011 12 181 0.0 1.6 0.03 0.36 0.36 99 1012.6
20260905063009 12 0 0.0 0.0 0.03 0.36 0.36 99 1012.4
20260905062009 12 125 0.0 3.2 0.03 0.36 0.36 99 1012.5
20260905061009 12 127 0.0 1.6 0.03 0.36 0.36 99 1012.4
20260905060009 12 164 0.0 3.2 0.00 0.33 0.33 99 1012.1
20260905055010 12 200 0.0 3.2 0.03 0.33 0.33 99 1011.9
20260905054009 12 213 0.0 3.2 0.03 0.33 0.33 99 1012.1
20260905053010 12 203 1.6 6.4 0.05 0.33 0.33 99 1012.3
20260905052009 12 165 1.6 12.9 0.10 0.33 0.33 99 1011.9
20260905051010 12 351 0.0 6.4 0.13 0.33 0.33 99 1011.5
20260905050009 13 273 0.0 4.8 0.15 0.33 0.33 99 1010.7
20260905045010 13 320 0.0 3.2 0.15 0.30 0.30 99 1010.7
20260905044011 13 191 1.6 3.2 0.20 0.30 0.30 99 1010.5
20260905043010 14 154 0.0 3.2 0.18 0.28 0.28 99 1011.0
20260905042009 14 329 0.0 4.8 0.18 0.23 0.23 99 1011.1
20260905041011 14 306 0.0 1.6 0.15 0.20 0.20 99 1011.0
20260905040010 14 185 0.0 3.2 0.13 0.18 0.18 99 1011.0
20260905035009 14 350 0.0 3.2 0.10 0.15 0.15 99 1010.5
20260905034009 14 307 1.6 3.2 0.03 0.10 0.10 99 1010.5
20260905033012 14 222 0.0 3.2 0.03 0.10 0.10 99 1010.3
20260905032009 14 293 0.0 3.2 0.05 0.05 0.05 99 1010.6
20260905031008 14 181 0.0 3.2 0.05 0.05 0.05 99 1010.1
20260905030009 15 225 0.0 1.6 0.05 0.05 0.05 99 1009.6
20260905025010 15 32 0.0 3.2 0.05 0.05 0.05 99 1009.4
20260905024009 15 326 0.0 3.2 0.05 0.05 0.05 99 1009.8
20260905023018 16 353 0.0 9.7 0.05 0.05 0.05 99 1009.2
20260905022009 17 354 3.2 8.0 0.00 0.00 0.00 96 1009.8
20260905021010 16 1 0.0 1.6 0.00 0.00 0.00 99 1008.5
20260905020009 17 1 0.0 3.2 0.00 0.00 0.00 99 1008.3
20260905015009 16 59 1.6 6.4 0.00 0.00 0.00 99 1008.5
20260905014009 16 225 0.0 3.2 0.00 0.00 0.00 99 1008.1
20260905013010 16 1 0.0 3.2 0.00 0.00 0.00 99 1007.8
20260905012009 16 331 1.6 3.2 0.00 0.00 0.00 99 1007.7
20260905011009 17 1 0.0 3.2 0.00 0.00 0.00 99 1007.8
20260905010009 17 317 0.0 9.7 0.00 0.00 0.00 99 1007.7
20260905005008 18 338 3.2 12.9 0.00 0.00 0.00 98 1007.7
20260905004008 18 52 3.2 24.1 0.00 0.00 0.00 95 1007.5
20260905003009 18 31 3.2 12.9 0.00 0.00 0.00 94 1007.3
20260905002009 18 17 4.8 14.5 0.00 0.00 0.00 94 1007.3
20260905001008 19 90 4.8 16.1 0.00 0.00 0.00 94 1007.2
20260905000010 19 25 8.0 29.0 0.00 0.00 0.00 94 1006.7